Time,TemperatureF,DewpointF,PressureIn,WindDirection,WindDirectionDegrees,WindSpeedMPH,WindSpeedGustMPH,Humidity,HourlyPrecipIn,Conditions,Clouds,dailyrainin,SoftwareType,DateUTC
2013-08-06 00:03:00,75.0,70.4,29.91,North,-999,-999.0,-999.0,86,-99.99,,,-99.99,WSDL version 420,2013-08-06 04:03:00,
2013-08-06 00:08:00,75.0,70.8,29.91,North,-999,-999.0,-999.0,87,-99.99,,,-99.99,WSDL version 420,2013-08-06 04:08:00,
2013-08-06 00:13:00,75.0,70.8,29.88,North,-999,-999.0,-999.0,87,-99.99,,,-99.99,WSDL version 420,2013-08-06 04:13:00,
2013-08-06 00:18:00,75.1,70.8,29.88,North,-999,-999.0,-999.0,87,-99.99,,,-99.99,WSDL version 420,2013-08-06 04:18:00,
2013-08-06 00:23:00,75.2,70.9,29.88,North,-999,-999.0,-999.0,87,-99.99,,,-99.99,WSDL version 420,2013-08-06 04:23:00,
2013-08-06 00:28:00,75.2,71.0,29.88,North,-999,-999.0,-999.0,87,-99.99,,,-99.99,WSDL version 420,2013-08-06 04:28:00,
2013-08-06 00:33:00,75.2,71.0,29.88,North,-999,-999.0,-999.0,87,-99.99,,,-99.99,WSDL version 420,2013-08-06 04:33:00,
2013-08-06 00:38:00,75.3,71.3,29.88,North,-999,-999.0,-999.0,88,-99.99,,,-99.99,WSDL version 420,2013-08-06 04:38:00,
2013-08-06 00:43:00,75.4,71.5,29.88,North,-999,-999.0,-999.0,88,-99.99,,,-99.99,WSDL version 420,2013-08-06 04:43:00,
2013-08-06 00:48:00,75.4,71.5,29.88,North,-999,-999.0,-999.0,88,-99.99,,,-99.99,WSDL version 420,2013-08-06 04:48:00,
2013-08-06 00:53:00,75.5,71.6,29.88,North,-999,-999.0,-999.0,88,-99.99,,,-99.99,WSDL version 420,2013-08-06 04:53:00,
2013-08-06 00:58:00,75.6,71.7,29.88,North,-999,-999.0,-999.0,88,-99.99,,,-99.99,WSDL version 420,2013-08-06 04:58:00,
2013-08-06 01:03:00,75.6,71.7,29.88,North,-999,-999.0,-999.0,88,-99.99,,,-99.99,WSDL version 420,2013-08-06 05:03:00,
2013-08-06 01:08:00,75.6,71.7,29.88,North,-999,-999.0,-999.0,88,-99.99,,,-99.99,WSDL version 420,2013-08-06 05:08:00,
2013-08-06 01:13:00,75.6,72.0,29.85,North,-999,-999.0,-999.0,89,-99.99,,,-99.99,WSDL version 420,2013-08-06 05:13:00,
2013-08-06 01:18:00,75.7,72.2,29.85,North,-999,-999.0,-999.0,89,-99.99,,,-99.99,WSDL version 420,2013-08-06 05:18:00,
2013-08-06 01:23:00,75.7,72.2,29.85,North,-999,-999.0,-999.0,89,-99.99,,,-99.99,WSDL version 420,2013-08-06 05:23:00,
2013-08-06 01:28:00,75.8,72.3,29.85,North,-999,-999.0,-999.0,89,-99.99,,,-99.99,WSDL version 420,2013-08-06 05:28:00,
2013-08-06 01:33:00,75.9,72.4,29.85,North,-999,-999.0,-999.0,89,-99.99,,,-99.99,WSDL version 420,2013-08-06 05:33:00,
2013-08-06 01:38:00,75.9,72.8,29.85,North,-999,-999.0,-999.0,90,-99.99,,,-99.99,WSDL version 420,2013-08-06 05:38:00,
2013-08-06 01:43:00,75.9,72.8,29.83,North,-999,-999.0,-999.0,90,-99.99,,,-99.99,WSDL version 420,2013-08-06 05:43:00,
2013-08-06 01:48:00,75.9,72.8,29.83,North,-999,-999.0,-999.0,90,-99.99,,,-99.99,WSDL version 420,2013-08-06 05:48:00,
2013-08-06 01:53:00,75.9,72.8,29.83,North,-999,-999.0,-999.0,90,-99.99,,,-99.99,WSDL version 420,2013-08-06 05:53:00,
2013-08-06 01:58:00,75.9,72.8,29.83,North,-999,-999.0,-999.0,90,-99.99,,,-99.99,WSDL version 420,2013-08-06 05:58:00,
2013-08-06 02:03:00,75.9,72.8,29.83,North,-999,-999.0,-999.0,90,-99.99,,,-99.99,WSDL version 420,2013-08-06 06:03:00,
2013-08-06 02:08:00,75.9,72.8,29.83,North,-999,-999.0,-999.0,90,-99.99,,,-99.99,WSDL version 420,2013-08-06 06:08:00,
2013-08-06 02:13:00,75.9,72.7,29.85,North,-999,-999.0,-999.0,90,-99.99,,,-99.99,WSDL version 420,2013-08-06 06:13:00,
2013-08-06 02:18:00,75.9,72.8,29.85,North,-999,-999.0,-999.0,90,-99.99,,,-99.99,WSDL version 420,2013-08-06 06:18:00,
2013-08-06 02:23:00,75.9,72.8,29.85,North,-999,-999.0,-999.0,90,-99.99,,,-99.99,WSDL version 420,2013-08-06 06:23:00,
2013-08-06 02:28:00,75.9,72.8,29.83,North,-999,-999.0,-999.0,90,-99.99,,,-99.99,WSDL version 420,2013-08-06 06:28:00,
2013-08-06 02:33:00,75.8,72.7,29.83,North,-999,-999.0,-999.0,90,-99.99,,,-99.99,WSDL version 420,2013-08-06 06:33:00,
2013-08-06 02:38:00,75.7,72.6,29.83,North,-999,-999.0,-999.0,90,-99.99,,,-99.99,WSDL version 420,2013-08-06 06:38:00,
2013-08-06 02:43:00,75.7,72.6,29.85,North,-999,-999.0,-999.0,90,-99.99,,,-99.99,WSDL version 420,2013-08-06 06:43:00,
2013-08-06 02:48:00,75.7,72.6,29.85,North,-999,-999.0,-999.0,90,-99.99,,,-99.99,WSDL version 420,2013-08-06 06:48:00,
2013-08-06 02:53:00,75.7,72.6,29.85,North,-999,-999.0,-999.0,90,-99.99,,,-99.99,WSDL version 420,2013-08-06 06:53:00,
2013-08-06 02:58:00,75.7,72.6,29.85,North,-999,-999.0,-999.0,90,-99.99,,,-99.99,WSDL version 420,2013-08-06 06:58:00,
2013-08-06 03:03:00,75.8,72.7,29.85,North,-999,-999.0,-999.0,90,-99.99,,,-99.99,WSDL version 420,2013-08-06 07:03:00,
2013-08-06 03:08:00,75.7,72.6,29.85,North,-999,-999.0,-999.0,90,-99.99,,,-99.99,WSDL version 420,2013-08-06 07:08:00,
2013-08-06 03:13:00,75.8,72.6,29.85,North,-999,-999.0,-999.0,90,-99.99,,,-99.99,WSDL version 420,2013-08-06 07:13:00,
2013-08-06 03:18:00,75.7,72.6,29.85,North,-999,-999.0,-999.0,90,-99.99,,,-99.99,WSDL version 420,2013-08-06 07:18:00,
2013-08-06 03:23:00,75.7,72.6,29.85,North,-999,-999.0,-999.0,90,-99.99,,,-99.99,WSDL version 420,2013-08-06 07:23:00,
2013-08-06 03:28:00,75.6,72.4,29.85,North,-999,-999.0,-999.0,90,-99.99,,,-99.99,WSDL version 420,2013-08-06 07:28:00,
2013-08-06 03:33:00,75.6,72.4,29.85,North,-999,-999.0,-999.0,90,-99.99,,,-99.99,WSDL version 420,2013-08-06 07:33:00,
2013-08-06 03:38:00,75.6,72.4,29.85,North,-999,-999.0,-999.0,90,-99.99,,,-99.99,WSDL version 420,2013-08-06 07:38:00,
2013-08-06 03:43:00,75.5,72.4,29.85,North,-999,-999.0,-999.0,90,-99.99,,,-99.99,WSDL version 420,2013-08-06 07:43:00,
2013-08-06 03:48:00,75.4,72.4,29.85,North,-999,-999.0,-999.0,90,-99.99,,,-99.99,WSDL version 420,2013-08-06 07:48:00,
2013-08-06 03:53:00,75.4,72.2,29.85,North,-999,-999.0,-999.0,90,-99.99,,,-99.99,WSDL version 420,2013-08-06 07:53:00,
2013-08-06 03:58:00,75.2,72.1,29.83,North,-999,-999.0,-999.0,90,-99.99,,,-99.99,WSDL version 420,2013-08-06 07:58:00,
2013-08-06 04:03:00,75.2,72.2,29.83,North,-999,-999.0,-999.0,91,-99.99,,,-99.99,WSDL version 420,2013-08-06 08:03:00,
2013-08-06 04:08:00,75.2,72.4,29.83,North,-999,-999.0,-999.0,91,-99.99,,,-99.99,WSDL version 420,2013-08-06 08:08:00,
2013-08-06 04:13:00,75.2,72.4,29.85,North,-999,-999.0,-999.0,91,-99.99,,,-99.99,WSDL version 420,2013-08-06 08:13:00,
2013-08-06 04:18:00,75.2,72.4,29.85,North,-999,-999.0,-999.0,91,-99.99,,,-99.99,WSDL version 420,2013-08-06 08:18:00,
2013-08-06 04:23:00,75.2,72.4,29.85,North,-999,-999.0,-999.0,91,-99.99,,,-99.99,WSDL version 420,2013-08-06 08:23:00,
2013-08-06 04:28:00,75.2,72.4,29.85,North,-999,-999.0,-999.0,91,-99.99,,,-99.99,WSDL version 420,2013-08-06 08:28:00,
2013-08-06 04:33:00,75.2,72.4,29.85,North,-999,-999.0,-999.0,91,-99.99,,,-99.99,WSDL version 420,2013-08-06 08:33:00,
2013-08-06 04:38:00,75.0,72.3,29.85,North,-999,-999.0,-999.0,91,-99.99,,,-99.99,WSDL version 420,2013-08-06 08:38:00,
2013-08-06 04:43:00,75.0,72.3,29.83,North,-999,-999.0,-999.0,91,-99.99,,,-99.99,WSDL version 420,2013-08-06 08:43:00,
2013-08-06 04:48:00,75.0,72.3,29.83,North,-999,-999.0,-999.0,91,-99.99,,,-99.99,WSDL version 420,2013-08-06 08:48:00,
2013-08-06 04:53:00,75.0,72.3,29.83,North,-999,-999.0,-999.0,91,-99.99,,,-99.99,WSDL version 420,2013-08-06 08:53:00,
2013-08-06 04:58:00,75.0,72.2,29.83,North,-999,-999.0,-999.0,91,-99.99,,,-99.99,WSDL version 420,2013-08-06 08:58:00,
2013-08-06 05:03:00,74.9,72.2,29.83,North,-999,-999.0,-999.0,91,-99.99,,,-99.99,WSDL version 420,2013-08-06 09:03:00,
2013-08-06 05:08:00,75.0,72.3,29.83,North,-999,-999.0,-999.0,91,-99.99,,,-99.99,WSDL version 420,2013-08-06 09:08:00,
2013-08-06 05:13:00,74.8,72.1,29.83,North,-999,-999.0,-999.0,91,-99.99,,,-99.99,WSDL version 420,2013-08-06 09:13:00,
2013-08-06 05:18:00,74.8,72.1,29.83,North,-999,-999.0,-999.0,91,-99.99,,,-99.99,WSDL version 420,2013-08-06 09:18:00,
2013-08-06 05:23:00,74.8,72.1,29.83,North,-999,-999.0,-999.0,91,-99.99,,,-99.99,WSDL version 420,2013-08-06 09:23:00,
2013-08-06 05:28:00,74.8,72.1,29.83,North,-999,-999.0,-999.0,91,-99.99,,,-99.99,WSDL version 420,2013-08-06 09:28:00,
2013-08-06 05:33:00,74.8,72.1,29.83,North,-999,-999.0,-999.0,91,-99.99,,,-99.99,WSDL version 420,2013-08-06 09:33:00,
2013-08-06 05:38:00,74.8,72.1,29.83,North,-999,-999.0,-999.0,91,-99.99,,,-99.99,WSDL version 420,2013-08-06 09:38:00,
2013-08-06 05:43:00,74.8,72.1,29.85,North,-999,-999.0,-999.0,91,-99.99,,,-99.99,WSDL version 420,2013-08-06 09:43:00,
2013-08-06 05:48:00,74.8,72.0,29.85,North,-999,-999.0,-999.0,91,-99.99,,,-99.99,WSDL version 420,2013-08-06 09:48:00,
2013-08-06 05:53:00,74.8,72.0,29.85,North,-999,-999.0,-999.0,91,-99.99,,,-99.99,WSDL version 420,2013-08-06 09:53:00,
2013-08-06 05:58:00,74.7,71.9,29.83,North,-999,-999.0,-999.0,91,-99.99,,,-99.99,WSDL version 420,2013-08-06 09:58:00,
2013-08-06 06:03:00,74.7,71.9,29.83,North,-999,-999.0,-999.0,91,-99.99,,,-99.99,WSDL version 420,2013-08-06 10:03:00,
2013-08-06 06:08:00,74.6,71.8,29.83,North,-999,-999.0,-999.0,91,-99.99,,,-99.99,WSDL version 420,2013-08-06 10:08:00,
2013-08-06 06:13:00,74.6,71.8,29.83,North,-999,-999.0,-999.0,91,-99.99,,,-99.99,WSDL version 420,2013-08-06 10:13:00,
2013-08-06 06:18:00,74.7,72.3,29.83,North,-999,-999.0,-999.0,92,-99.99,,,-99.99,WSDL version 420,2013-08-06 10:18:00,
2013-08-06 06:23:00,74.6,72.2,29.83,North,-999,-999.0,-999.0,92,-99.99,,,-99.99,WSDL version 420,2013-08-06 10:23:00,
2013-08-06 06:28:00,74.5,72.1,29.85,North,-999,-999.0,-999.0,92,-99.99,,,-99.99,WSDL version 420,2013-08-06 10:28:00,
2013-08-06 06:33:00,74.5,72.1,29.85,North,-999,-999.0,-999.0,92,-99.99,,,-99.99,WSDL version 420,2013-08-06 10:33:00,
2013-08-06 06:38:00,74.5,72.1,29.85,North,-999,-999.0,-999.0,92,-99.99,,,-99.99,WSDL version 420,2013-08-06 10:38:00,
2013-08-06 06:43:00,74.5,72.1,29.83,North,-999,-999.0,-999.0,92,-99.99,,,-99.99,WSDL version 420,2013-08-06 10:43:00,
2013-08-06 06:48:00,74.5,72.1,29.83,North,-999,-999.0,-999.0,92,-99.99,,,-99.99,WSDL version 420,2013-08-06 10:48:00,
2013-08-06 06:53:00,74.5,72.1,29.83,North,-999,-999.0,-999.0,92,-99.99,,,-99.99,WSDL version 420,2013-08-06 10:53:00,
2013-08-06 06:58:00,74.5,72.1,29.83,North,-999,-999.0,-999.0,92,-99.99,,,-99.99,WSDL version 420,2013-08-06 10:58:00,
2013-08-06 07:08:00,74.5,72.1,29.83,North,-999,-999.0,-999.0,92,-99.99,,,-99.99,WSDL version 420,2013-08-06 11:08:00,
2013-08-06 07:13:00,74.5,72.1,29.85,North,-999,-999.0,-999.0,92,-99.99,,,-99.99,WSDL version 420,2013-08-06 11:13:00,
2013-08-06 07:18:00,74.7,72.3,29.85,North,-999,-999.0,-999.0,92,-99.99,,,-99.99,WSDL version 420,2013-08-06 11:18:00,
2013-08-06 07:23:00,74.9,72.7,29.85,North,-999,-999.0,-999.0,93,-99.99,,,-99.99,WSDL version 420,2013-08-06 11:23:00,
2013-08-06 07:28:00,75.2,73.0,29.85,North,-999,-999.0,-999.0,93,-99.99,,,-99.99,WSDL version 420,2013-08-06 11:28:00,
2013-08-06 07:33:00,75.5,73.4,29.85,North,-999,-999.0,-999.0,93,-99.99,,,-99.99,WSDL version 420,2013-08-06 11:33:00,
2013-08-06 07:38:00,75.7,73.6,29.85,North,-999,-999.0,-999.0,93,-99.99,,,-99.99,WSDL version 420,2013-08-06 11:38:00,
2013-08-06 07:43:00,76.0,73.9,29.83,North,-999,-999.0,-999.0,93,-99.99,,,-99.99,WSDL version 420,2013-08-06 11:43:00,
2013-08-06 07:48:00,76.3,74.3,29.83,North,-999,-999.0,-999.0,93,0.00,,,0.00,WSDL version 420,2013-08-06 11:48:00,
2013-08-06 07:53:00,76.7,74.6,29.83,North,360,0.0,0.0,93,0.00,,,0.00,WSDL version 420,2013-08-06 11:53:00,
2013-08-06 07:58:00,77.0,74.6,29.85,North,0,0.0,0.0,92,-99.99,,,-99.99,WSDL version 420,2013-08-06 11:58:00,
2013-08-06 08:03:00,77.3,74.9,29.85,North,360,0.0,0.0,92,-99.99,,,-99.99,WSDL version 420,2013-08-06 12:03:00,
2013-08-06 08:08:00,77.7,75.0,29.85,North,0,0.0,0.0,91,-99.99,,,-99.99,WSDL version 420,2013-08-06 12:08:00,
2013-08-06 08:13:00,78.1,75.3,29.85,North,-999,-999.0,-999.0,91,-99.99,,,-99.99,WSDL version 420,2013-08-06 12:13:00,
2013-08-06 08:18:00,78.6,75.8,29.85,North,-999,-999.0,-999.0,91,-99.99,,,-99.99,WSDL version 420,2013-08-06 12:18:00,
2013-08-06 08:23:00,79.0,75.8,29.85,North,-999,-999.0,-999.0,90,-99.99,,,-99.99,WSDL version 420,2013-08-06 12:23:00,
2013-08-06 08:28:00,79.3,75.9,29.85,North,-999,-999.0,-999.0,89,0.00,,,0.00,WSDL version 420,2013-08-06 12:28:00,
2013-08-06 08:33:00,79.9,76.3,29.85,North,-999,-999.0,-999.0,88,0.00,,,0.00,WSDL version 420,2013-08-06 12:33:00,
2013-08-06 08:38:00,80.9,76.8,29.85,North,-999,-999.0,-999.0,87,-99.99,,,-99.99,WSDL version 420,2013-08-06 12:38:00,
2013-08-06 08:43:00,82.1,77.6,29.85,North,-999,-999.0,-999.0,86,-99.99,,,-99.99,WSDL version 420,2013-08-06 12:43:00,
2013-08-06 08:48:00,83.7,78.1,29.85,North,-999,-999.0,-999.0,81,-99.99,,,-99.99,WSDL version 420,2013-08-06 12:48:00,
2013-08-06 08:53:00,85.4,77.9,29.85,North,-999,-999.0,-999.0,76,0.00,,,0.00,WSDL version 420,2013-08-06 12:53:00,
2013-08-06 08:58:00,86.8,77.6,29.85,North,-999,-999.0,-999.0,73,0.00,,,0.00,WSDL version 420,2013-08-06 12:58:00,
2013-08-06 09:03:00,87.8,76.8,29.85,North,0,0.0,0.0,68,0.00,,,0.00,WSDL version 420,2013-08-06 13:03:00,
2013-08-06 09:08:00,89.0,76.7,29.85,ESE,113,0.0,0.0,66,0.00,,,0.00,WSDL version 420,2013-08-06 13:08:00,
2013-08-06 09:13:00,90.3,76.4,29.85,SSE,158,1.1,2.2,62,0.00,,,0.00,WSDL version 420,2013-08-06 13:13:00,
2013-08-06 09:18:00,91.1,76.3,29.85,SSE,158,1.1,2.2,61,0.00,,,0.00,WSDL version 420,2013-08-06 13:18:00,
2013-08-06 09:23:00,91.4,75.6,29.85,SSE,158,1.1,2.2,59,0.00,,,0.00,WSDL version 420,2013-08-06 13:23:00,
2013-08-06 09:28:00,91.6,75.2,29.88,North,0,0.0,2.2,59,0.00,,,0.00,WSDL version 420,2013-08-06 13:28:00,
2013-08-06 09:33:00,91.4,74.1,29.88,North,0,0.0,2.2,58,0.00,,,0.00,WSDL version 420,2013-08-06 13:33:00,
2013-08-06 09:38:00,91.7,74.3,29.88,East,90,0.0,0.0,56,0.00,,,0.00,WSDL version 420,2013-08-06 13:38:00,
2013-08-06 09:43:00,90.8,73.6,29.85,NNE,30,0.0,1.1,58,0.00,,,0.00,WSDL version 420,2013-08-06 13:43:00,
2013-08-06 09:48:00,92.2,74.4,29.85,North,360,0.0,1.1,56,0.00,,,0.00,WSDL version 420,2013-08-06 13:48:00,
2013-08-06 09:53:00,92.5,74.3,29.85,East,90,0.8,1.1,55,0.00,,,0.00,WSDL version 420,2013-08-06 13:53:00,
2013-08-06 09:58:00,91.9,73.0,29.88,NE,56,0.7,2.0,54,0.00,,,0.00,WSDL version 420,2013-08-06 13:58:00,
2013-08-06 10:03:00,90.3,71.6,29.88,NNE,23,1.3,2.0,54,0.00,,,0.00,WSDL version 420,2013-08-06 14:03:00,
2013-08-06 10:08:00,89.5,71.8,29.88,NE,56,1.2,2.0,56,0.00,,,0.00,WSDL version 420,2013-08-06 14:08:00,
2013-08-06 10:13:00,90.4,73.3,29.88,SE,135,0.0,2.0,58,0.00,,,0.00,WSDL version 420,2013-08-06 14:13:00,
2013-08-06 10:18:00,91.4,74.8,29.88,SSW,203,0.0,2.7,58,0.00,,,0.00,WSDL version 420,2013-08-06 14:18:00,
2013-08-06 10:23:00,92.4,75.2,29.88,SSE,158,3.1,3.1,57,0.00,,,0.00,WSDL version 420,2013-08-06 14:23:00,
2013-08-06 10:28:00,92.9,75.0,29.88,ENE,68,1.2,5.8,55,0.00,,,0.00,WSDL version 420,2013-08-06 14:28:00,
2013-08-06 10:33:00,92.9,74.3,29.88,NE,56,1.9,5.8,53,0.00,,,0.00,WSDL version 420,2013-08-06 14:33:00,
2013-08-06 10:38:00,92.7,72.7,29.88,NE,48,0.5,5.8,51,0.00,,,0.00,WSDL version 420,2013-08-06 14:38:00,
2013-08-06 10:43:00,92.8,72.4,29.88,SE,124,0.7,3.6,53,0.00,,,0.00,WSDL version 420,2013-08-06 14:43:00,
2013-08-06 10:48:00,92.6,71.8,29.88,NE,49,2.5,3.4,50,0.00,,,0.00,WSDL version 420,2013-08-06 14:48:00,
2013-08-06 10:53:00,92.2,70.5,29.88,NE,48,2.2,4.3,49,0.00,,,0.00,WSDL version 420,2013-08-06 14:53:00,
2013-08-06 10:58:00,92.2,71.3,29.88,ENE,71,2.2,4.3,50,0.00,,,0.00,WSDL version 420,2013-08-06 14:58:00,
2013-08-06 11:03:00,91.9,71.3,29.88,NE,56,2.7,3.1,50,0.00,,,0.00,WSDL version 420,2013-08-06 15:03:00,
2013-08-06 11:08:00,91.5,71.4,29.88,SE,124,0.4,3.8,53,0.00,,,0.00,WSDL version 420,2013-08-06 15:08:00,
2013-08-06 11:13:00,91.3,71.8,29.91,South,190,0.8,3.8,53,0.00,,,0.00,WSDL version 420,2013-08-06 15:13:00,
2013-08-06 11:18:00,91.9,72.1,29.91,SE,128,1.8,3.6,52,0.00,,,0.00,WSDL version 420,2013-08-06 15:18:00,
2013-08-06 11:23:00,91.9,71.5,29.91,West,281,0.3,3.6,51,0.00,,,0.00,WSDL version 420,2013-08-06 15:23:00,
2013-08-06 11:28:00,92.1,71.6,29.91,North,357,2.5,2.9,52,0.00,,,0.00,WSDL version 420,2013-08-06 15:28:00,
2013-08-06 11:33:00,92.4,72.4,29.91,NE,51,0.0,2.9,53,0.00,,,0.00,WSDL version 420,2013-08-06 15:33:00,
2013-08-06 11:38:00,92.4,72.3,29.91,East,83,0.4,2.5,52,0.00,,,0.00,WSDL version 420,2013-08-06 15:38:00,
2013-08-06 11:43:00,92.2,72.0,29.91,North,5,0.7,2.7,52,0.00,,,0.00,WSDL version 420,2013-08-06 15:43:00,
2013-08-06 11:48:00,91.7,71.0,29.91,ENE,59,1.9,2.9,51,0.00,,,0.00,WSDL version 420,2013-08-06 15:48:00,
2013-08-06 11:53:00,91.7,71.8,29.91,SE,135,0.0,2.9,53,0.00,,,0.00,WSDL version 420,2013-08-06 15:53:00,
2013-08-06 11:58:00,92.9,73.0,29.91,SSE,167,0.4,2.2,52,0.00,,,0.00,WSDL version 420,2013-08-06 15:58:00,
2013-08-06 12:03:00,93.6,73.3,29.91,SSW,203,2.5,3.8,52,0.00,,,0.00,WSDL version 420,2013-08-06 16:03:00,
2013-08-06 12:08:00,93.3,72.0,29.91,ENE,71,1.2,3.8,49,0.00,,,0.00,WSDL version 420,2013-08-06 16:08:00,
2013-08-06 12:13:00,93.4,71.4,29.88,ENE,62,1.3,3.8,49,0.00,,,0.00,WSDL version 420,2013-08-06 16:13:00,
2013-08-06 12:18:00,92.9,71.6,29.88,SSE,152,0.0,3.8,50,0.00,,,0.00,WSDL version 420,2013-08-06 16:18:00,
2013-08-06 12:23:00,92.5,70.7,29.88,ENE,63,2.2,2.9,49,0.00,,,0.00,WSDL version 420,2013-08-06 16:23:00,
2013-08-06 12:28:00,92.7,70.9,29.88,South,188,1.0,3.8,50,0.00,,,0.00,WSDL version 420,2013-08-06 16:28:00,
2013-08-06 12:33:00,93.3,72.1,29.88,South,174,2.5,3.8,50,0.00,,,0.00,WSDL version 420,2013-08-06 16:33:00,
2013-08-06 12:38:00,94.2,73.3,29.88,WSW,251,1.4,3.8,51,0.00,,,0.00,WSDL version 420,2013-08-06 16:38:00,
2013-08-06 12:43:00,94.3,71.3,29.85,SSE,165,1.1,3.4,48,0.00,,,0.00,WSDL version 420,2013-08-06 16:43:00,
2013-08-06 12:48:00,95.3,72.5,29.85,SSE,158,1.6,3.6,48,0.00,,,0.00,WSDL version 420,2013-08-06 16:48:00,
2013-08-06 12:53:00,95.1,70.7,29.85,SW,216,1.6,4.3,46,0.00,,,0.00,WSDL version 420,2013-08-06 16:53:00,
2013-08-06 12:58:00,95.2,70.7,29.83,ESE,109,1.8,4.3,46,0.00,,,0.00,WSDL version 420,2013-08-06 16:58:00,
2013-08-06 13:03:00,95.7,72.1,29.83,SSE,153,0.2,3.4,46,0.00,,,0.00,WSDL version 420,2013-08-06 17:03:00,
2013-08-06 13:08:00,96.2,72.7,29.83,South,176,1.4,3.4,47,0.00,,,0.00,WSDL version 420,2013-08-06 17:08:00,
2013-08-06 13:13:00,95.0,69.9,29.85,NE,48,1.5,3.1,44,0.00,,,0.00,WSDL version 420,2013-08-06 17:13:00,
2013-08-06 13:18:00,93.9,69.2,29.85,NE,34,0.2,2.2,45,0.00,,,0.00,WSDL version 420,2013-08-06 17:18:00,
2013-08-06 13:23:00,93.6,69.7,29.85,East,95,0.4,3.1,46,0.00,,,0.00,WSDL version 420,2013-08-06 17:23:00,
2013-08-06 13:28:00,94.3,70.3,29.85,East,90,2.0,3.1,45,0.00,,,0.00,WSDL version 420,2013-08-06 17:28:00,
2013-08-06 13:33:00,94.5,70.5,29.85,NW,318,0.6,3.1,47,0.00,,,0.00,WSDL version 420,2013-08-06 17:33:00,
2013-08-06 13:38:00,95.5,71.5,29.85,ENE,64,2.5,3.8,45,0.00,,,0.00,WSDL version 420,2013-08-06 17:38:00,
2013-08-06 13:43:00,95.9,71.3,29.85,SSW,194,2.3,3.8,46,0.00,,,0.00,WSDL version 420,2013-08-06 17:43:00,
2013-08-06 13:48:00,96.0,71.6,29.85,SW,225,2.2,3.6,45,0.00,,,0.00,WSDL version 420,2013-08-06 17:48:00,
2013-08-06 13:53:00,96.1,70.9,29.85,South,169,2.4,4.9,45,0.00,,,0.00,WSDL version 420,2013-08-06 17:53:00,
2013-08-06 13:58:00,96.2,71.8,29.85,SSE,167,1.8,4.9,45,0.00,,,0.00,WSDL version 420,2013-08-06 17:58:00,
2013-08-06 14:03:00,95.6,69.8,29.85,SE,131,0.0,4.0,43,0.00,,,0.00,WSDL version 420,2013-08-06 18:03:00,
2013-08-06 14:08:00,95.9,70.6,29.85,SE,127,0.0,2.9,45,0.00,,,0.00,WSDL version 420,2013-08-06 18:08:00,
2013-08-06 14:13:00,96.5,71.0,29.85,SE,135,0.0,3.8,43,0.00,,,0.00,WSDL version 420,2013-08-06 18:13:00,
2013-08-06 14:23:00,98.2,71.9,29.85,ENE,62,2.1,4.3,41,0.00,,,0.00,WSDL version 420,2013-08-06 18:23:00,
2013-08-06 14:28:00,97.9,70.2,29.85,South,177,3.0,4.0,41,0.00,,,0.00,WSDL version 420,2013-08-06 18:28:00,
2013-08-06 14:33:00,98.2,70.5,29.85,ENE,68,2.3,4.0,41,0.00,,,0.00,WSDL version 420,2013-08-06 18:33:00,
2013-08-06 14:38:00,98.4,70.8,29.85,South,173,2.2,4.3,42,0.00,,,0.00,WSDL version 420,2013-08-06 18:38:00,
2013-08-06 14:43:00,98.6,70.9,29.85,SSW,209,2.8,4.3,41,0.00,,,0.00,WSDL version 420,2013-08-06 18:43:00,
2013-08-06 14:48:00,96.9,68.9,29.85,SE,141,0.0,3.6,40,0.00,,,0.00,WSDL version 420,2013-08-06 18:48:00,
2013-08-06 14:53:00,95.9,68.9,29.85,South,180,0.0,0.9,42,0.00,,,0.00,WSDL version 420,2013-08-06 18:53:00,
2013-08-06 14:58:00,96.1,69.7,29.83,SE,146,0.3,2.2,44,0.00,,,0.00,WSDL version 420,2013-08-06 18:58:00,
2013-08-06 15:03:00,96.8,70.2,29.83,South,173,1.2,2.9,43,0.00,,,0.00,WSDL version 420,2013-08-06 19:03:00,
2013-08-06 15:08:00,95.8,68.5,29.83,NE,56,2.2,3.1,41,0.00,,,0.00,WSDL version 420,2013-08-06 19:08:00,
2013-08-06 15:13:00,94.7,67.4,29.83,East,90,0.0,3.1,41,0.00,,,0.00,WSDL version 420,2013-08-06 19:13:00,
2013-08-06 15:18:00,94.2,67.6,29.83,North,360,0.0,2.5,42,0.00,,,0.00,WSDL version 420,2013-08-06 19:18:00,
2013-08-06 15:28:00,93.6,67.9,29.83,NE,48,0.0,2.5,44,0.00,,,0.00,WSDL version 420,2013-08-06 19:28:00,
2013-08-06 15:33:00,93.5,67.4,29.83,NE,55,1.8,2.5,42,0.00,,,0.00,WSDL version 420,2013-08-06 19:33:00,
2013-08-06 15:38:00,93.1,67.3,29.83,East,98,1.6,2.9,43,0.00,,,0.00,WSDL version 420,2013-08-06 19:38:00,
2013-08-06 15:43:00,92.8,68.1,29.83,South,172,0.0,2.9,45,0.00,,,0.00,WSDL version 420,2013-08-06 19:43:00,
2013-08-06 15:48:00,92.9,68.7,29.83,ENE,75,0.0,1.3,45,0.00,,,0.00,WSDL version 420,2013-08-06 19:48:00,
2013-08-06 15:53:00,92.8,68.4,29.83,SSE,166,0.0,1.3,45,0.00,,,0.00,WSDL version 420,2013-08-06 19:53:00,
2013-08-06 15:58:00,92.8,68.3,29.83,ENE,68,0.0,0.0,45,0.00,,,0.00,WSDL version 420,2013-08-06 19:58:00,
2013-08-06 16:03:00,92.7,68.4,29.83,ENE,71,0.0,0.0,45,0.00,,,0.00,WSDL version 420,2013-08-06 20:03:00,
2013-08-06 16:08:00,92.9,68.1,29.83,NE,45,0.7,2.0,44,0.00,,,0.00,WSDL version 420,2013-08-06 20:08:00,
2013-08-06 16:13:00,93.6,69.0,29.83,NNE,13,0.1,2.7,45,0.00,,,0.00,WSDL version 420,2013-08-06 20:13:00,
2013-08-06 16:18:00,94.5,69.5,29.83,NE,43,0.0,2.7,44,0.00,,,0.00,WSDL version 420,2013-08-06 20:18:00,
2013-08-06 16:23:00,94.9,68.5,29.83,East,80,1.5,3.6,42,0.00,,,0.00,WSDL version 420,2013-08-06 20:23:00,
2013-08-06 16:28:00,95.2,69.7,29.83,ENE,71,0.4,4.0,44,0.00,,,0.00,WSDL version 420,2013-08-06 20:28:00,
2013-08-06 16:33:00,93.9,68.7,29.83,ENE,61,3.0,6.3,44,0.00,,,0.00,WSDL version 420,2013-08-06 20:33:00,
2013-08-06 16:38:00,93.0,68.8,29.83,ENE,74,2.9,6.3,46,0.00,,,0.00,WSDL version 420,2013-08-06 20:38:00,
2013-08-06 16:43:00,92.2,68.9,29.83,ENE,64,3.2,5.6,48,0.00,,,0.00,WSDL version 420,2013-08-06 20:43:00,
2013-08-06 16:48:00,91.4,68.8,29.83,East,95,3.5,6.3,48,0.00,,,0.00,WSDL version 420,2013-08-06 20:48:00,
2013-08-06 16:53:00,90.9,69.5,29.83,East,101,3.2,6.3,50,0.00,,,0.00,WSDL version 420,2013-08-06 20:53:00,
2013-08-06 16:58:00,90.9,69.8,29.83,East,84,2.0,5.6,51,0.00,,,0.00,WSDL version 420,2013-08-06 20:58:00,
2013-08-06 17:03:00,90.7,70.2,29.83,NE,53,2.3,6.0,52,0.00,,,0.00,WSDL version 420,2013-08-06 21:03:00,
2013-08-06 17:08:00,90.4,69.8,29.83,SE,124,3.7,7.2,51,0.00,,,0.00,WSDL version 420,2013-08-06 21:08:00,
2013-08-06 17:13:00,90.0,70.0,29.83,ENE,74,1.9,7.2,52,0.00,,,0.00,WSDL version 420,2013-08-06 21:13:00,
2013-08-06 17:18:00,89.6,69.7,29.83,ENE,73,3.2,6.3,52,0.00,,,0.00,WSDL version 420,2013-08-06 21:18:00,
2013-08-06 17:23:00,89.6,70.3,29.83,NNW,341,1.1,5.6,54,0.00,,,0.00,WSDL version 420,2013-08-06 21:23:00,
2013-08-06 17:28:00,89.2,70.4,29.83,ENE,68,3.0,3.6,54,0.00,,,0.00,WSDL version 420,2013-08-06 21:28:00,
2013-08-06 17:33:00,88.8,70.1,29.83,NE,48,0.6,4.3,54,0.00,,,0.00,WSDL version 420,2013-08-06 21:33:00,
2013-08-06 17:38:00,88.4,69.9,29.83,East,84,3.0,4.7,55,0.00,,,0.00,WSDL version 420,2013-08-06 21:38:00,
2013-08-06 17:43:00,88.2,70.0,29.83,SSE,158,2.8,4.7,55,0.00,,,0.00,WSDL version 420,2013-08-06 21:43:00,
2013-08-06 17:48:00,87.9,70.0,29.83,East,98,1.5,4.3,56,0.00,,,0.00,WSDL version 420,2013-08-06 21:48:00,
2013-08-06 17:53:00,87.6,70.1,29.83,NNW,345,1.5,4.0,57,0.00,,,0.00,WSDL version 420,2013-08-06 21:53:00,
2013-08-06 17:58:00,87.4,69.7,29.83,WNW,289,2.8,4.0,54,0.00,,,0.00,WSDL version 420,2013-08-06 21:58:00,
2013-08-06 18:03:00,86.2,67.2,29.83,NNE,30,2.3,4.0,54,0.00,,,0.00,WSDL version 420,2013-08-06 22:03:00,
2013-08-06 18:08:00,85.5,67.0,29.83,South,180,0.4,3.8,55,0.00,,,0.00,WSDL version 420,2013-08-06 22:08:00,
2013-08-06 18:13:00,85.1,67.2,29.85,NNW,342,0.0,1.6,55,0.00,,,0.00,WSDL version 420,2013-08-06 22:13:00,
2013-08-06 18:18:00,84.7,66.7,29.85,NW,319,0.0,2.0,55,0.00,,,0.00,WSDL version 420,2013-08-06 22:18:00,
2013-08-06 18:23:00,84.4,66.2,29.85,NE,34,0.2,2.5,54,0.00,,,0.00,WSDL version 420,2013-08-06 22:23:00,
2013-08-06 18:28:00,84.2,65.9,29.83,NNE,32,0.0,2.5,54,0.00,,,0.00,WSDL version 420,2013-08-06 22:28:00,
2013-08-06 18:33:00,84.2,66.3,29.83,North,6,0.6,1.1,55,0.00,,,0.00,WSDL version 420,2013-08-06 22:33:00,
2013-08-06 18:38:00,84.2,66.6,29.83,NW,304,0.0,1.1,56,0.00,,,0.00,WSDL version 420,2013-08-06 22:38:00,
2013-08-06 18:43:00,84.5,67.4,29.83,South,180,3.1,3.1,57,0.00,,,0.00,WSDL version 420,2013-08-06 22:43:00,
2013-08-06 18:48:00,84.6,67.7,29.83,SSE,167,1.5,5.4,57,0.00,,,0.00,WSDL version 420,2013-08-06 22:48:00,
2013-08-06 18:53:00,84.7,68.0,29.83,South,180,0.9,5.4,58,0.00,,,0.00,WSDL version 420,2013-08-06 22:53:00,
2013-08-06 18:58:00,84.7,68.3,29.83,South,180,0.0,2.2,58,0.00,,,0.00,WSDL version 420,2013-08-06 22:58:00,
2013-08-06 19:08:00,84.5,68.5,29.83,South,180,0.0,0.0,59,0.00,,,0.00,WSDL version 420,2013-08-06 23:08:00,
2013-08-06 19:13:00,84.2,68.9,29.83,South,180,0.0,0.0,60,0.00,,,0.00,WSDL version 420,2013-08-06 23:13:00,
2013-08-06 19:18:00,84.1,68.7,29.83,South,180,0.0,0.0,60,0.00,,,0.00,WSDL version 420,2013-08-06 23:18:00,
2013-08-06 19:23:00,83.9,69.0,29.83,South,180,0.0,0.0,61,0.00,,,0.00,WSDL version 420,2013-08-06 23:23:00,
2013-08-06 19:28:00,83.6,69.6,29.85,South,180,0.0,0.0,63,0.00,,,0.00,WSDL version 420,2013-08-06 23:28:00,
2013-08-06 19:33:00,83.3,69.4,29.85,South,180,0.0,0.0,63,0.00,,,0.00,WSDL version 420,2013-08-06 23:33:00,
2013-08-06 19:38:00,83.1,69.2,29.85,South,180,0.0,0.0,63,0.00,,,0.00,WSDL version 420,2013-08-06 23:38:00,
2013-08-06 19:43:00,83.1,69.2,29.85,SSE,158,0.0,0.0,63,0.00,,,0.00,WSDL version 420,2013-08-06 23:43:00,
2013-08-06 19:48:00,83.0,69.2,29.85,SSE,158,0.0,0.0,64,0.00,,,0.00,WSDL version 420,2013-08-06 23:48:00,
2013-08-06 19:53:00,82.8,69.3,29.85,SSE,158,0.0,0.0,64,0.00,,,0.00,WSDL version 420,2013-08-06 23:53:00,
2013-08-06 19:58:00,82.6,69.6,29.85,SSE,158,0.0,0.0,65,0.00,,,0.00,WSDL version 420,2013-08-06 23:58:00,
2013-08-06 20:03:00,82.5,70.0,29.85,SSE,158,0.0,0.0,66,0.00,,,0.00,WSDL version 420,2013-08-07 00:03:00,
2013-08-06 20:08:00,82.2,69.9,29.85,SSE,158,0.0,0.0,67,0.00,,,0.00,WSDL version 420,2013-08-07 00:08:00,
2013-08-06 20:13:00,81.9,69.8,29.85,East,87,0.0,0.0,67,0.00,,,0.00,WSDL version 420,2013-08-07 00:13:00,
2013-08-06 20:18:00,81.9,69.8,29.85,East,90,0.0,0.0,67,0.00,,,0.00,WSDL version 420,2013-08-07 00:18:00,
2013-08-06 20:23:00,81.8,70.2,29.85,East,90,0.0,0.0,68,0.00,,,0.00,WSDL version 420,2013-08-07 00:23:00,
2013-08-06 20:28:00,81.6,70.0,29.85,East,90,0.0,0.0,68,0.00,,,0.00,WSDL version 420,2013-08-07 00:28:00,
2013-08-06 20:33:00,81.4,70.3,29.85,East,90,0.0,0.0,69,0.00,,,0.00,WSDL version 420,2013-08-07 00:33:00,
2013-08-06 20:38:00,81.3,70.1,29.85,South,171,0.0,0.0,69,0.00,,,0.00,WSDL version 420,2013-08-07 00:38:00,
2013-08-06 20:43:00,81.0,69.9,29.85,SSW,203,0.0,0.0,69,0.00,,,0.00,WSDL version 420,2013-08-07 00:43:00,
2013-08-06 20:48:00,80.8,70.1,29.85,South,180,0.0,0.0,70,0.00,,,0.00,WSDL version 420,2013-08-07 00:48:00,
2013-08-06 20:53:00,80.6,69.9,29.85,South,184,0.0,0.0,70,0.00,,,0.00,WSDL version 420,2013-08-07 00:53:00,
2013-08-06 20:58:00,80.4,70.2,29.85,SSW,203,0.0,0.0,71,0.00,,,0.00,WSDL version 420,2013-08-07 00:58:00,
2013-08-06 21:03:00,80.3,70.4,29.85,SSW,203,0.0,0.0,72,0.00,,,0.00,WSDL version 420,2013-08-07 01:03:00,
2013-08-06 21:08:00,80.1,70.3,29.85,South,180,0.0,0.0,72,0.00,,,0.00,WSDL version 420,2013-08-07 01:08:00,
2013-08-06 21:13:00,79.9,70.1,29.85,South,180,0.0,0.0,72,0.00,,,0.00,WSDL version 420,2013-08-07 01:13:00,
2013-08-06 21:18:00,79.9,70.2,29.85,South,180,0.0,0.0,73,0.00,,,0.00,WSDL version 420,2013-08-07 01:18:00,
2013-08-06 21:23:00,79.7,70.3,29.85,South,180,0.0,0.0,73,0.00,,,0.00,WSDL version 420,2013-08-07 01:23:00,
2013-08-06 21:28:00,79.5,70.4,29.85,South,180,0.0,0.0,74,0.00,,,0.00,WSDL version 420,2013-08-07 01:28:00,
2013-08-06 21:33:00,79.3,70.3,29.85,South,180,0.0,0.0,74,0.00,,,0.00,WSDL version 420,2013-08-07 01:33:00,
2013-08-06 21:38:00,79.3,70.3,29.85,South,180,0.0,0.0,74,0.00,,,0.00,WSDL version 420,2013-08-07 01:38:00,
2013-08-06 21:43:00,79.3,70.3,29.85,South,180,0.0,0.0,74,0.00,,,0.00,WSDL version 420,2013-08-07 01:43:00,
2013-08-06 21:48:00,79.3,70.5,29.85,North,0,0.0,0.0,75,0.00,,,0.00,WSDL version 420,2013-08-07 01:48:00,
2013-08-06 21:53:00,79.3,70.6,29.85,South,180,0.0,0.0,75,0.00,,,0.00,WSDL version 420,2013-08-07 01:53:00,
2013-08-06 21:58:00,79.2,70.9,29.85,South,180,0.0,0.0,76,0.00,,,0.00,WSDL version 420,2013-08-07 01:58:00,
2013-08-06 22:03:00,79.1,70.9,29.85,South,180,0.0,0.0,76,0.00,,,0.00,WSDL version 420,2013-08-07 02:03:00,
2013-08-06 22:08:00,78.9,70.7,29.85,South,180,0.0,0.0,76,0.00,,,0.00,WSDL version 420,2013-08-07 02:08:00,
2013-08-06 22:13:00,78.7,70.7,29.83,East,79,0.0,0.0,77,0.00,,,0.00,WSDL version 420,2013-08-07 02:13:00,
2013-08-06 22:18:00,78.6,70.8,29.83,NE,45,0.0,0.0,77,0.00,,,0.00,WSDL version 420,2013-08-07 02:18:00,
2013-08-06 22:23:00,78.6,71.2,29.83,NE,45,0.0,0.0,78,0.00,,,0.00,WSDL version 420,2013-08-07 02:23:00,
2013-08-06 22:28:00,78.6,71.2,29.85,NE,45,0.0,0.0,78,0.00,,,0.00,WSDL version 420,2013-08-07 02:28:00,
2013-08-06 22:33:00,78.4,71.0,29.85,NE,45,0.0,0.0,78,0.00,,,0.00,WSDL version 420,2013-08-07 02:33:00,
2013-08-06 22:38:00,78.3,70.8,29.85,NE,45,0.0,0.0,78,0.00,,,0.00,WSDL version 420,2013-08-07 02:38:00,
2013-08-06 22:43:00,78.3,71.2,29.85,NE,45,0.0,0.0,79,0.00,,,0.00,WSDL version 420,2013-08-07 02:43:00,
2013-08-06 22:48:00,78.1,71.0,29.85,NE,45,0.0,0.0,79,0.00,,,0.00,WSDL version 420,2013-08-07 02:48:00,
2013-08-06 22:53:00,78.1,71.0,29.85,NE,45,0.0,0.0,79,0.00,,,0.00,WSDL version 420,2013-08-07 02:53:00,
2013-08-06 22:58:00,78.1,71.3,29.85,NE,45,0.0,0.0,80,0.00,,,0.00,WSDL version 420,2013-08-07 02:58:00,
2013-08-06 23:03:00,78.1,71.4,29.85,NE,45,0.0,0.0,80,0.00,,,0.00,WSDL version 420,2013-08-07 03:03:00,
2013-08-06 23:08:00,78.1,71.4,29.85,NE,45,0.0,0.0,80,0.00,,,0.00,WSDL version 420,2013-08-07 03:08:00,
2013-08-06 23:13:00,78.1,71.4,29.85,NE,45,0.0,0.0,80,0.00,,,0.00,WSDL version 420,2013-08-07 03:13:00,
2013-08-06 23:18:00,77.9,71.2,29.85,NE,45,0.0,0.0,80,0.00,,,0.00,WSDL version 420,2013-08-07 03:18:00,
2013-08-06 23:23:00,77.9,71.5,29.85,NE,45,0.0,0.0,80,0.00,,,0.00,WSDL version 420,2013-08-07 03:23:00,
2013-08-06 23:28:00,77.9,71.5,29.85,NE,45,0.0,0.0,81,0.00,,,0.00,WSDL version 420,2013-08-07 03:28:00,
2013-08-06 23:33:00,77.8,71.6,29.85,NE,45,0.0,0.0,81,0.00,,,0.00,WSDL version 420,2013-08-07 03:33:00,
2013-08-06 23:38:00,77.7,71.5,29.85,NE,45,0.0,0.0,81,0.00,,,0.00,WSDL version 420,2013-08-07 03:38:00,
2013-08-06 23:43:00,77.7,71.5,29.85,NE,45,0.0,0.0,81,0.00,,,0.00,WSDL version 420,2013-08-07 03:43:00,
2013-08-06 23:48:00,77.6,71.4,29.85,NE,45,0.0,0.0,81,0.00,,,0.00,WSDL version 420,2013-08-07 03:48:00,
2013-08-06 23:53:00,77.6,71.7,29.85,NE,45,0.0,0.0,82,0.00,,,0.00,WSDL version 420,2013-08-07 03:53:00,
2013-08-06 23:58:00,77.5,71.7,29.85,NE,45,0.0,0.0,82,0.00,,,0.00,WSDL version 420,2013-08-07 03:58:00,